#timestamp,LO_Frequency,Hit,StdDev 
1505264415.4,286047002.6,N,1.0
1505264435.2,286047002.4,N,1.0
1505264455.1,286047002.7,N,1.0
1505264456.0,286047002.7,N,1.0
1505264475.8,286047002.7,N,1.0
1505264495.6,286047002.3,N,1.0
1505264515.5,286047002.2,N,1.0
1505264535.3,286047002.1,N,1.0
1505264555.2,286047002.5,N,1.0
1505264575.9,286047000.5,N,1.0
1505264595.7,286047002.4,N,1.0
1505264615.6,286046999.7,N,1.0
1505264635.4,286047001.7,N,1.0
1505264655.3,286047002.1,N,1.0
1505264675.1,286047001.8,N,1.0
1505264676.0,286047001.8,N,1.0
1505264695.8,286047001.6,N,0.9
1505264715.7,286047001.6,N,0.9
1505264735.5,286047001.6,N,0.9
1505264755.3,286047002.5,N,0.9
1505264775.2,286047002.6,N,0.8
1505264795.0,286046999.8,N,0.9
1505264795.9,286046999.8,N,0.9
1505264815.8,286047002.5,N,0.9
1505264835.6,286046999.7,N,1.0
1505264855.4,286047000.2,N,1.0
1505264875.3,286047002.7,N,1.0
1505264895.1,286046999.7,N,1.1
1505264915.9,286046999.9,N,1.1
1505264935.7,286047000.1,N,1.1
1505264955.5,286047002.5,N,1.1
1505264975.4,286047002.1,N,1.1
1505264995.2,286047002.1,N,1.1
1505265015.0,286047002.6,N,1.1
1505265016.0,286047002.6,N,1.1
1505265035.8,286047002.4,N,1.1
1505265055.6,286047002.2,N,1.1
1505265075.5,286047002.7,N,1.1
1505265095.3,286047002.7,N,1.1
1505265115.2,286047002.6,N,1.1
1505265135.9,286047001.4,N,1.1
1505265155.7,286047001.6,N,1.0
1505265175.6,286047002.1,N,1.0
1505265195.4,286047002.5,N,1.1
1505265215.2,286047001.9,N,1.1
1505265235.1,286047003.9,Y,0.0
1505265236.0,286047003.9,P,1.1
1505265255.8,286047000.9,N,1.3
1505265275.7,286047000.5,N,1.3
1505265295.5,286046999.9,N,1.4
1505265315.3,286046999.9,N,1.4
1505265335.2,286047000.4,N,1.3
1505265355.0,286047000.3,N,1.2
1505265355.9,286047000.3,N,1.2
1505265375.8,286047000.1,N,1.2
1505265395.6,286047002.1,N,1.2
1505265415.4,286047002.4,N,1.2
1505265435.3,286047000.1,N,1.2
1505265455.1,286047000.1,N,1.1
1505265475.8,286047000.2,N,1.1
1505265495.7,286046999.8,N,1.1
1505265515.5,286047002.3,N,1.1
1505265535.4,286047002.1,N,1.1
1505265555.2,286047002.6,N,1.2
1505265575.0,286047002.3,N,1.2
1505265575.9,286047002.3,N,1.2
1505265595.8,286046999.7,N,1.2
1505265615.6,286046999.8,N,1.2
1505265635.5,286047000.1,N,1.2
1505265655.3,286047000.1,N,1.2
1505265675.1,286047000.8,N,1.1
1505265695.9,286047000.5,N,1.1
1505265715.7,286047000.3,N,1.1
1505265735.6,286047000.9,N,1.1
1505265755.4,286047000.2,N,1.1
1505265775.2,286047000.3,N,1.1
1505265795.1,286047000.6,N,0.9
1505265796.0,286047000.6,N,0.9
1505265815.8,286046999.8,N,0.9
1505265835.7,286046999.8,N,0.9
1505265855.5,286047002.7,N,1.0
1505265875.3,286047002.3,N,1.0
1505265895.2,286047002.8,N,1.1
1505265915.0,286047000.4,N,1.1
1505265915.9,286047000.4,N,1.1
1505265935.7,286047001.2,N,1.0
1505265955.6,286047000.7,N,1.0
1505265975.4,286047000.8,N,1.0
1505265995.3,286047000.9,N,1.0
1505266015.1,286047000.5,N,1.0
1505266035.8,286047001.1,N,1.0
1505266055.7,286047000.3,N,0.9
1505266075.5,286047000.1,N,0.9
1505266095.4,286046999.7,N,0.9
1505266115.2,286047000.1,N,0.8
1505266135.0,286047002.8,Y,0.0
1505266135.9,286047002.8,P,1.1
1505266155.8,286047000.2,N,1.1
1505266175.6,286047000.2,N,1.1
1505266195.5,286047000.1,N,1.0
1505266215.3,286047000.3,N,1.0
1505266235.1,286047000.3,N,0.9
1505266255.9,286047000.0,N,0.9
1505266275.7,286047000.2,N,0.8
1505266295.5,286047002.1,N,0.9
1505266315.4,286047002.1,N,1.0
1505266335.2,286047002.1,N,1.0
1505266355.1,286046999.9,N,1.0
1505266356.0,286046999.9,N,1.0
1505266375.8,286046999.9,N,1.0
1505266395.6,286047000.0,N,1.0
1505266415.5,286047000.1,N,0.9
1505266435.3,286046999.7,N,0.9
1505266455.2,286047002.7,N,1.0
1505266475.9,286047002.1,N,1.0
1505266495.7,286047001.9,N,1.0
1505266515.6,286047004.3,Y,0.0
1505266535.4,286047002.0,P,0.6
1505266555.3,286047002.3,P,0.6
1505266575.1,286047002.2,P,0.6
1505266595.8,286047002.2,Y,0.0
1505266615.7,286047000.8,P,0.5
1505266635.5,286047001.1,N,0.4
1505266655.4,286047000.7,N,0.4
1505266675.2,286046998.3,Y,0.0
1505266695.0,286046999.5,P,0.8
1505266695.9,286046999.5,N,0.8
1505266715.8,286046999.2,N,0.7
1505266735.6,286046996.9,Y,0.0
1505266755.5,286046996.5,P,1.7
1505266775.3,286046996.8,N,1.5
1505266795.1,286046997.5,N,1.3
1505266815.9,286046997.3,N,1.2
1505266835.7,286046997.2,N,1.1
1505266855.6,286046998.0,N,1.0
1505266875.4,286046997.5,N,1.0
1505266895.2,286046997.4,N,0.9
1505266915.1,286046996.9,Y,0.0
1505266916.0,286046996.9,P,0.3
1505266935.8,286046998.2,P,0.5
1505266955.7,286046999.1,N,0.8
1505266975.5,286046996.5,Y,0.0
1505266995.3,286046998.6,P,0.3
1505267015.2,286047000.9,N,1.3
1505267035.0,286046998.3,N,1.2
1505267035.9,286046998.3,N,1.1
1505267055.8,286046998.6,N,1.0
1505267075.6,286046998.2,N,0.9
1505267095.4,286046998.9,N,0.9
1505267115.3,286046999.5,N,0.9
1505267135.1,286046999.6,N,0.8
1505267155.8,286046999.3,N,0.8
1505267175.7,286046996.7,Y,0.0
1505267195.5,286046998.3,P,0.3
1505267215.4,286046998.5,P,0.3
1505267235.2,286046999.5,N,0.5
1505267255.0,286046997.0,Y,0.0
1505267256.0,286046997.0,P,0.9
1505267275.8,286046998.8,N,0.8
1505267295.6,286046998.6,N,0.8
1505267315.5,286046998.9,N,0.7
1505267335.3,286046999.1,N,0.7
1505267355.1,286046996.6,Y,0.0
1505267375.9,286046998.4,P,0.1
1505267395.7,286046998.3,P,0.1
1505267415.6,286046998.9,P,0.2
1505267435.4,286046996.9,Y,0.0
1505267455.2,286046998.1,P,0.2
1505267475.1,286047000.7,P,1.1
1505267476.0,286047000.7,N,1.2
1505267495.8,286046998.9,N,1.1
1505267515.7,286046998.3,N,1.1
1505267535.5,286046998.9,N,1.0
1505267555.3,286046999.2,N,0.9
1505267575.2,286046998.3,N,0.9
1505267595.0,286046999.3,N,0.9
1505267595.9,286046999.3,N,0.8
1505267615.7,286046998.8,N,0.8
1505267635.6,286046999.1,N,0.8
1505267655.4,286046999.0,N,0.8
1505267675.3,286046999.6,N,0.7
1505267695.1,286046997.2,Y,0.0
1505267715.8,286046999.2,P,0.0
1505267735.7,286046998.7,P,0.2
1505267755.5,286046999.1,P,0.2
1505267775.4,286046999.1,Y,0.0
1505267795.2,286046998.4,P,0.3
1505267815.0,286047000.0,N,0.7
1505267815.9,286047000.0,N,0.7
1505267835.8,286047001.1,N,0.9
1505267855.6,286046998.6,N,0.9
1505267875.5,286046998.6,N,0.9
1505267895.3,286046998.4,N,0.9
1505267915.1,286046999.0,N,0.9
1505267935.9,286046999.5,N,0.8
1505267955.7,286046999.6,N,0.8
1505267975.5,286046999.5,N,0.8
1505267995.4,286046999.1,N,0.7
